Time,TemperatureF,DewpointF,PressureIn,WindDirection,WindDirectionDegrees,WindSpeedMPH,WindSpeedGustMPH,Humidity,HourlyPrecipIn,Conditions,Clouds,dailyrainin,SolarRadiationWatts/m^2,SoftwareType,DateUTC
2013-03-29 00:12:00,51.0,36.0,-100.00,ESE,104,4.0,7.0,57,0.00,,,-99.99,1.000000,,2013-03-29 05:12:00,
2013-03-29 00:23:00,51.0,36.0,-100.00,ESE,104,4.0,7.0,57,0.00,,,-99.99,1.000000,,2013-03-29 05:23:00,
2013-03-29 00:33:00,51.0,36.0,-100.00,ESE,104,4.0,7.0,57,0.00,,,-99.99,1.000000,,2013-03-29 05:33:00,
2013-03-29 00:43:00,51.0,36.0,-100.00,ESE,104,4.0,7.0,57,0.00,,,-99.99,1.000000,,2013-03-29 05:43:00,
2013-03-29 00:52:00,51.0,36.0,-100.00,ESE,104,4.0,7.0,57,0.00,,,-99.99,1.000000,,2013-03-29 05:52:00,
2013-03-29 01:23:00,48.0,37.0,-100.00,NNE,32,2.0,6.0,66,0.00,,,-99.99,1.000000,,2013-03-29 06:23:00,
2013-03-29 01:32:00,48.0,37.0,-100.00,NNE,32,2.0,6.0,66,0.00,,,-99.99,1.000000,,2013-03-29 06:32:00,
2013-03-29 01:42:00,48.0,37.0,-100.00,NNE,32,2.0,6.0,66,0.00,,,-99.99,1.000000,,2013-03-29 06:42:00,
2013-03-29 01:52:00,48.0,37.0,-100.00,NNE,32,2.0,6.0,66,0.00,,,-99.99,1.000000,,2013-03-29 06:52:00,
2013-03-29 02:12:00,47.0,37.0,-100.00,North,349,0.0,3.0,69,0.00,,,-99.99,1.000000,,2013-03-29 07:12:00,
2013-03-29 02:22:00,47.0,37.0,-100.00,North,349,0.0,3.0,69,0.00,,,-99.99,1.000000,,2013-03-29 07:22:00,
2013-03-29 02:32:00,47.0,37.0,-100.00,North,349,0.0,3.0,69,0.00,,,-99.99,1.000000,,2013-03-29 07:32:00,
2013-03-29 02:42:00,47.0,37.0,-100.00,North,349,0.0,3.0,69,0.00,,,-99.99,1.000000,,2013-03-29 07:42:00,
2013-03-29 02:52:00,47.0,37.0,-100.00,North,349,0.0,3.0,69,0.00,,,-99.99,1.000000,,2013-03-29 07:52:00,
2013-03-29 03:12:00,46.0,41.0,-100.00,NW,310,1.0,3.0,81,0.00,,,-99.99,1.000000,,2013-03-29 08:12:00,
2013-03-29 03:22:00,46.0,41.0,-100.00,NW,310,1.0,3.0,81,0.00,,,-99.99,1.000000,,2013-03-29 08:22:00,
2013-03-29 03:32:00,46.0,41.0,-100.00,NW,310,1.0,3.0,81,0.00,,,-99.99,1.000000,,2013-03-29 08:32:00,
2013-03-29 03:42:00,46.0,41.0,-100.00,NW,310,1.0,3.0,81,0.00,,,-99.99,1.000000,,2013-03-29 08:42:00,
2013-03-29 03:52:00,46.0,41.0,-100.00,NW,310,1.0,3.0,81,0.00,,,-99.99,1.000000,,2013-03-29 08:52:00,
2013-03-29 04:13:00,46.0,40.0,-100.00,NNW,336,2.0,4.0,78,0.00,,,-99.99,1.000000,,2013-03-29 09:13:00,
2013-03-29 04:22:00,46.0,40.0,-100.00,NNW,336,2.0,4.0,78,0.00,,,-99.99,1.000000,,2013-03-29 09:22:00,
2013-03-29 04:33:00,46.0,40.0,-100.00,NNW,336,2.0,4.0,78,0.00,,,-99.99,1.000000,,2013-03-29 09:33:00,
2013-03-29 04:42:00,46.0,40.0,-100.00,NNW,336,2.0,4.0,78,0.00,,,-99.99,1.000000,,2013-03-29 09:42:00,
2013-03-29 04:52:00,46.0,40.0,-100.00,NNW,336,2.0,4.0,78,0.00,,,-99.99,1.000000,,2013-03-29 09:52:00,
2013-03-29 05:23:00,47.0,40.0,-100.00,ENE,76,2.0,4.0,76,0.00,,,-99.99,1.000000,,2013-03-29 10:23:00,
2013-03-29 05:33:00,47.0,40.0,-100.00,ENE,76,2.0,4.0,76,0.00,,,-99.99,1.000000,,2013-03-29 10:33:00,
2013-03-29 05:42:00,47.0,40.0,-100.00,ENE,76,2.0,4.0,76,0.00,,,-99.99,1.000000,,2013-03-29 10:42:00,
2013-03-29 05:52:00,47.0,40.0,-100.00,ENE,76,2.0,4.0,76,0.00,,,-99.99,1.000000,,2013-03-29 10:52:00,
2013-03-29 06:12:00,47.0,41.0,-100.00,North,350,4.0,7.0,79,0.01,,,-99.99,1.000000,,2013-03-29 11:12:00,
2013-03-29 06:23:00,47.0,41.0,-100.00,North,350,4.0,7.0,79,0.01,,,-99.99,1.000000,,2013-03-29 11:23:00,
2013-03-29 06:32:00,47.0,41.0,-100.00,North,350,4.0,7.0,79,0.01,,,-99.99,1.000000,,2013-03-29 11:32:00,
2013-03-29 06:42:00,47.0,41.0,-100.00,North,350,4.0,7.0,79,0.01,,,-99.99,1.000000,,2013-03-29 11:42:00,
2013-03-29 06:52:00,47.0,41.0,-100.00,North,350,4.0,7.0,79,0.01,,,-99.99,1.000000,,2013-03-29 11:52:00,
2013-03-29 07:22:00,46.0,43.0,-100.00,North,359,7.0,18.0,88,0.02,,,-99.99,1.000000,,2013-03-29 12:22:00,
2013-03-29 07:32:00,46.0,43.0,-100.00,North,359,7.0,18.0,88,0.02,,,-99.99,1.000000,,2013-03-29 12:32:00,
2013-03-29 07:42:00,46.0,43.0,-100.00,North,359,7.0,18.0,88,0.02,,,-99.99,1.000000,,2013-03-29 12:42:00,
2013-03-29 07:52:00,46.0,43.0,-100.00,North,359,7.0,18.0,88,0.02,,,-99.99,1.000000,,2013-03-29 12:52:00,
2013-03-29 08:22:00,46.0,43.0,-100.00,ENE,61,6.0,12.0,89,0.02,,,-99.99,6.000000,,2013-03-29 13:22:00,
2013-03-29 08:32:00,46.0,43.0,-100.00,ENE,61,6.0,12.0,89,0.02,,,-99.99,6.000000,,2013-03-29 13:32:00,
2013-03-29 08:42:00,46.0,43.0,-100.00,ENE,61,6.0,12.0,89,0.02,,,-99.99,6.000000,,2013-03-29 13:42:00,
2013-03-29 08:52:00,46.0,43.0,-100.00,ENE,61,6.0,12.0,89,0.02,,,-99.99,6.000000,,2013-03-29 13:52:00,
2013-03-29 09:22:00,46.0,44.0,-100.00,ENE,65,5.0,9.0,92,0.05,,,-99.99,30.000000,,2013-03-29 14:22:00,
2013-03-29 09:32:00,46.0,44.0,-100.00,ENE,65,5.0,9.0,92,0.05,,,-99.99,30.000000,,2013-03-29 14:32:00,
2013-03-29 09:42:00,46.0,44.0,-100.00,ENE,65,5.0,9.0,92,0.05,,,-99.99,30.000000,,2013-03-29 14:42:00,
2013-03-29 09:52:00,46.0,44.0,-100.00,ENE,65,5.0,9.0,92,0.05,,,-99.99,30.000000,,2013-03-29 14:52:00,
2013-03-29 10:22:00,47.0,45.0,-100.00,ESE,108,8.0,13.0,92,0.01,,,-99.99,99.000000,,2013-03-29 15:22:00,
2013-03-29 10:33:00,47.0,45.0,-100.00,ESE,108,8.0,13.0,92,0.01,,,-99.99,99.000000,,2013-03-29 15:33:00,
2013-03-29 10:43:00,47.0,45.0,-100.00,ESE,108,8.0,13.0,92,0.01,,,-99.99,99.000000,,2013-03-29 15:43:00,
2013-03-29 10:52:00,47.0,45.0,-100.00,ESE,108,8.0,13.0,92,0.01,,,-99.99,99.000000,,2013-03-29 15:52:00,
2013-03-29 11:13:00,51.0,47.0,-100.00,SE,129,3.0,9.0,86,0.00,,,-99.99,260.000000,,2013-03-29 16:13:00,
2013-03-29 11:23:00,51.0,47.0,-100.00,SE,129,3.0,9.0,86,0.00,,,-99.99,260.000000,,2013-03-29 16:23:00,
2013-03-29 11:32:00,51.0,47.0,-100.00,SE,129,3.0,9.0,86,0.00,,,-99.99,260.000000,,2013-03-29 16:32:00,
2013-03-29 11:42:00,51.0,47.0,-100.00,SE,129,3.0,9.0,86,0.00,,,-99.99,260.000000,,2013-03-29 16:42:00,
2013-03-29 11:52:00,51.0,47.0,-100.00,SE,129,3.0,9.0,86,0.00,,,-99.99,260.000000,,2013-03-29 16:52:00,
2013-03-29 12:22:00,52.0,47.0,-100.00,SSE,152,4.0,6.0,84,0.00,,,-99.99,232.000000,,2013-03-29 17:22:00,
2013-03-29 12:33:00,52.0,47.0,-100.00,SSE,152,4.0,6.0,84,0.00,,,-99.99,232.000000,,2013-03-29 17:33:00,
2013-03-29 12:43:00,52.0,47.0,-100.00,SSE,152,4.0,6.0,84,0.00,,,-99.99,232.000000,,2013-03-29 17:43:00,
2013-03-29 12:52:00,52.0,47.0,-100.00,SSE,152,4.0,6.0,84,0.00,,,-99.99,232.000000,,2013-03-29 17:52:00,
2013-03-29 13:12:00,56.0,46.0,-100.00,SE,142,6.0,8.0,70,0.00,,,0.11,572.000000,,2013-03-29 18:12:00,
2013-03-29 13:23:00,56.0,46.0,-100.00,SE,142,6.0,8.0,70,0.00,,,0.11,572.000000,,2013-03-29 18:23:00,
2013-03-29 13:32:00,56.0,46.0,-100.00,SE,142,6.0,8.0,70,0.00,,,0.11,572.000000,,2013-03-29 18:32:00,
2013-03-29 13:42:00,56.0,46.0,-100.00,SE,142,6.0,8.0,70,0.00,,,0.11,572.000000,,2013-03-29 18:42:00,
2013-03-29 13:52:00,56.0,46.0,-100.00,SE,142,6.0,8.0,70,0.00,,,0.11,572.000000,,2013-03-29 18:52:00,
2013-03-29 14:12:00,61.0,50.0,-100.00,NE,53,4.0,9.0,66,0.00,,,0.11,942.000000,,2013-03-29 19:12:00,
2013-03-29 14:23:00,61.0,50.0,-100.00,NE,53,4.0,9.0,66,0.00,,,0.11,942.000000,,2013-03-29 19:23:00,
2013-03-29 14:32:00,61.0,50.0,-100.00,NE,53,4.0,9.0,66,0.00,,,0.11,942.000000,,2013-03-29 19:32:00,
2013-03-29 14:42:00,61.0,50.0,-100.00,NE,53,4.0,9.0,66,0.00,,,0.11,942.000000,,2013-03-29 19:42:00,
2013-03-29 14:52:00,61.0,50.0,-100.00,NE,53,4.0,9.0,66,0.00,,,0.11,942.000000,,2013-03-29 19:52:00,
2013-03-29 15:12:00,61.0,47.0,-100.00,East,84,5.0,9.0,61,0.00,,,0.11,772.000000,,2013-03-29 20:12:00,
2013-03-29 15:22:00,61.0,47.0,-100.00,East,84,5.0,9.0,61,0.00,,,0.11,772.000000,,2013-03-29 20:22:00,
2013-03-29 15:33:00,61.0,47.0,-100.00,East,84,5.0,9.0,61,0.00,,,0.11,772.000000,,2013-03-29 20:33:00,
2013-03-29 15:42:00,61.0,47.0,-100.00,East,84,5.0,9.0,61,0.00,,,0.11,772.000000,,2013-03-29 20:42:00,
2013-03-29 15:52:00,61.0,47.0,-100.00,East,84,5.0,9.0,61,0.00,,,0.11,772.000000,,2013-03-29 20:52:00,
2013-03-29 15:53:00,62.0,48.0,-100.00,NE,36,4.0,9.0,61,0.00,,,0.11,590.000000,,2013-03-29 20:53:00,
2013-03-29 16:22:00,62.0,48.0,-100.00,NE,36,4.0,9.0,61,0.00,,,0.11,590.000000,,2013-03-29 21:22:00,
2013-03-29 16:33:00,62.0,48.0,-100.00,NE,36,4.0,9.0,61,0.00,,,0.11,590.000000,,2013-03-29 21:33:00,
2013-03-29 16:42:00,62.0,48.0,-100.00,NE,36,4.0,9.0,61,0.00,,,0.11,590.000000,,2013-03-29 21:42:00,
2013-03-29 17:12:00,63.0,48.0,-100.00,SE,133,4.0,8.0,57,0.00,,,0.11,620.000000,,2013-03-29 22:12:00,
2013-03-29 17:23:00,63.0,48.0,-100.00,SE,133,4.0,8.0,57,0.00,,,0.11,620.000000,,2013-03-29 22:23:00,
2013-03-29 17:33:00,63.0,48.0,-100.00,SE,133,4.0,8.0,57,0.00,,,0.11,620.000000,,2013-03-29 22:33:00,
2013-03-29 17:42:00,63.0,48.0,-100.00,SE,133,4.0,8.0,57,0.00,,,0.11,620.000000,,2013-03-29 22:42:00,
2013-03-29 17:52:00,63.0,48.0,-100.00,SE,133,4.0,8.0,57,0.00,,,0.11,620.000000,,2013-03-29 22:52:00,
2013-03-29 18:22:00,62.0,47.0,-100.00,East,87,1.0,8.0,58,0.00,,,0.11,174.000000,,2013-03-29 23:22:00,
2013-03-29 18:32:00,62.0,47.0,-100.00,East,87,1.0,8.0,58,0.00,,,0.11,174.000000,,2013-03-29 23:32:00,
2013-03-29 18:42:00,62.0,47.0,-100.00,East,87,1.0,8.0,58,0.00,,,0.11,174.000000,,2013-03-29 23:42:00,
2013-03-29 18:52:00,62.0,47.0,-100.00,East,87,1.0,8.0,58,0.00,,,0.11,174.000000,,2013-03-29 23:52:00,
2013-03-29 19:12:00,59.0,48.0,-100.00,East,94,5.0,8.0,66,0.00,,,0.11,78.000000,,2013-03-30 00:12:00,
2013-03-29 19:22:00,59.0,48.0,-100.00,East,94,5.0,8.0,66,0.00,,,0.11,78.000000,,2013-03-30 00:22:00,
2013-03-29 19:32:00,59.0,48.0,-100.00,East,94,5.0,8.0,66,0.00,,,0.11,78.000000,,2013-03-30 00:32:00,
2013-03-29 19:42:00,59.0,48.0,-100.00,East,94,5.0,8.0,66,0.00,,,0.11,78.000000,,2013-03-30 00:42:00,
2013-03-29 19:52:00,59.0,48.0,-100.00,East,94,5.0,8.0,66,0.00,,,0.11,78.000000,,2013-03-30 00:52:00,
2013-03-29 20:12:00,56.0,48.0,-100.00,ENE,69,5.0,7.0,74,0.00,,,0.11,10.000000,,2013-03-30 01:12:00,
2013-03-29 20:22:00,56.0,48.0,-100.00,ENE,69,5.0,7.0,74,0.00,,,0.11,10.000000,,2013-03-30 01:22:00,
2013-03-29 20:33:00,56.0,48.0,-100.00,ENE,69,5.0,7.0,74,0.00,,,0.11,10.000000,,2013-03-30 01:33:00,
2013-03-29 20:43:00,56.0,48.0,-100.00,ENE,69,5.0,7.0,74,0.00,,,0.11,10.000000,,2013-03-30 01:43:00,
2013-03-29 20:52:00,56.0,48.0,-100.00,ENE,69,5.0,7.0,74,0.00,,,0.11,10.000000,,2013-03-30 01:52:00,
2013-03-29 21:22:00,53.0,47.0,-100.00,ENE,77,2.0,4.0,81,0.00,,,0.11,1.000000,,2013-03-30 02:22:00,
2013-03-29 21:32:00,53.0,47.0,-100.00,ENE,77,2.0,4.0,81,0.00,,,0.11,1.000000,,2013-03-30 02:32:00,
2013-03-29 21:42:00,53.0,47.0,-100.00,ENE,77,2.0,4.0,81,0.00,,,0.11,1.000000,,2013-03-30 02:42:00,
2013-03-29 21:52:00,53.0,47.0,-100.00,ENE,77,2.0,4.0,81,0.00,,,0.11,1.000000,,2013-03-30 02:52:00,
2013-03-29 22:12:00,49.0,46.0,-100.00,East,82,2.0,4.0,90,0.00,,,0.11,1.000000,,2013-03-30 03:12:00,
2013-03-29 22:22:00,49.0,46.0,-100.00,East,82,2.0,4.0,90,0.00,,,0.11,1.000000,,2013-03-30 03:22:00,
2013-03-29 22:33:00,49.0,46.0,-100.00,East,82,2.0,4.0,90,0.00,,,0.11,1.000000,,2013-03-30 03:33:00,
2013-03-29 22:43:00,49.0,46.0,-100.00,East,82,2.0,4.0,90,0.00,,,0.11,1.000000,,2013-03-30 03:43:00,
2013-03-29 22:52:00,49.0,46.0,-100.00,East,82,2.0,4.0,90,0.00,,,0.11,1.000000,,2013-03-30 03:52:00,
2013-03-29 23:12:00,47.0,45.0,-100.00,NW,313,0.0,3.0,94,0.00,,,0.11,1.000000,,2013-03-30 04:12:00,
2013-03-29 23:23:00,47.0,45.0,-100.00,NW,313,0.0,3.0,94,0.00,,,0.11,1.000000,,2013-03-30 04:23:00,
2013-03-29 23:32:00,47.0,45.0,-100.00,NW,313,0.0,3.0,94,0.00,,,0.11,1.000000,,2013-03-30 04:32:00,
2013-03-29 23:43:00,47.0,45.0,-100.00,NW,313,0.0,3.0,94,0.00,,,0.11,1.000000,,2013-03-30 04:43:00,
2013-03-29 23:52:00,47.0,45.0,-100.00,NW,313,0.0,3.0,94,0.00,,,0.11,1.000000,,2013-03-30 04:52:00,